Regional Weather Roundup
Issued by NWS

Home | Current Version | Previous Version | Text Only | Print | Product List | Glossary Off
Versions: 1 2 3 4 5 6 7 8 9 10 11 12 13 14 15 16 17 18 19 20 21 22 23 24 25 26 27 28 29 30 31 32 33 34 35 36 37 38 39 40 41 42 43 44 45 46 47 48 49 50

998
ASUS45 KCYS 050910
RWRWY

WYOMING REGIONAL WEATHER ROUNDUP
NATIONAL WEATHER SERVICE CHEYENNE WY
200 AM MST MON DEC 05 2016

NOTE:  "FAIR" INDICATES FEW OR NO CLOUDS BELOW 12,000 FEET
WITH NO SIGNIFICANT WEATHER AND/OR OBSTRUCTIONS TO VISIBILITY.

WYZ001-051000-
YELLOWSTONE NATIONAL PARK

CITY           SKY/WX    TMP DP  RH WIND       PRES   REMARKS
LK YELLOWSTONE   N/A     19  17  92 NW9G23    29.50F WCI   8
W YELLOWSTONE  NOT AVBL

$$
WYZ002>013-054>058-071-098>099-051000-
NORTHERN WYOMING

CITY           SKY/WX    TMP DP  RH WIND       PRES   REMARKS
JACKSON        CLOUDY    28  18  64 W31G41    29.57S WCI  12
CODY           FLURRIES  25  20  81 N17       29.58R WCI  12
GREYBULL       CLOUDY    33  18  53 NW23      29.52S WCI  21
WORLAND        CLOUDY    29  26  89 NW14G21   29.55R WCI  18
SHERIDAN       CLOUDY    30  26  85 W17       29.61R WCI  18
BUFFALO        LGT SNOW  29  24  82 NW21G35   29.55F VSB 1   WCI  16
GILLETTE       LGT SNOW  29  29 100 NW12      29.57R VSB 3/4 WCI  19
HULETT         LGT SNOW  34  28  80 NW7       29.55R WCI  28
NEWCASTLE      FAIR      36  23  60 CALM      29.52F

$$
WYZ014>020-022>026-101>103-051000-
CENTRAL WYOMING

CITY           SKY/WX    TMP DP  RH WIND       PRES   REMARKS
BIG PINEY      CLOUDY    26  25  96 SW6       29.64F WCI  19
PINEDALE       LGT SNOW  28  27  93 SW13G26   29.61F WCI  18
DUBOIS         CLOUDY    28  19  69 W28G43    29.50S HAZE    WCI  13
LANDER         CLOUDY    35  25  66 SW12      29.52F WCI  27
RIVERTON       FAIR      32  24  72 SW13      29.52F WCI  22
CASPER         MOCLDY    38  24  57 SW28G35   29.54S WCI  26
DOUGLAS        FAIR      40  24  53 W28G36    29.53F WCI  29

$$
WYZ021-027>030-104>119-051000-
SOUTHERN WYOMING

CITY           SKY/WX    TMP DP  RH WIND       PRES   REMARKS
EVANSTON       CLOUDY    30  24  78 SW18G26   29.71F WCI  18
KEMMERER       FLURRIES  28  27  93 SW16G23   29.67F WCI  17
FORT BRIDGER   FLURRIES  32  32 100 W17       29.73F WCI  21
ROCK SPRINGS   CLOUDY    31  26  82 W25G32    29.68F WCI  17
DIXON          CLOUDY    33  15  47 SW16G25   29.75S WCI  23
RAWLINS        CLOUDY    32  14  47 SW24G33   29.67F WCI  19
SARATOGA       CLOUDY    32  18  55 SW18G24   29.68F WCI  20
LARAMIE        CLOUDY    34  16  47 SW12G20   29.64F WCI  25
CHEYENNE       FAIR      37  18  46 W9        29.61F WCI  30
TORRINGTON     FAIR      48  19  31 W9        29.57F
PINE BLUFFS    FAIR      28  18  64 S7G16     29.64F WCI  21

$$




USA.gov is the U.S. government's official web portal to all federal, state and local government web resources and services.